Saint Martin Island, Sint Maarten

4:30 AM AST on February 26, 2017 (GMT -0400)
Princess Juliana International

Weather History for TNCM - April, 2015

Change the Weather History Date:

Thursday, April 23, 2015

  Actual Average Record
Temperature  
Mean Temperature 80 °F -  
Max Temperature 84 °F 84 °F 86 °F (1998)
Min Temperature 77 °F 75 °F 69 °F (2009)
Cooling Degree Days 16    
Growing Degree Days 30 (Base 50)    
Moisture  
Dew Point 72 °F    
Average Humidity 73    
Maximum Humidity 83    
Minimum Humidity 62    
Precipitation  
Precipitation 0.00 in 0.12 in - ()
Sea Level Pressure  
Sea Level Pressure 29.99 in    
Wind  
Wind Speed 9 mph ()    
Max Wind Speed 14 mph    
Max Gust Speed -    
Visibility 6.2 miles    
Events      
Averages and records for this station are not official NWS values.
T = Trace of Precipitation, MM = Missing Value Source: Averaged Metar Reports

Daily Weather History Graph

Daily Weather History Graph

Search for Another Location

Airport or City:

Trip Planner

Search our weather history database for the weather conditions in past years. The results will help you decide how hot, cold, wet, or windy it might be!

Date:

Astronomy

Apr. 23, 2015 Rise Set
Actual Time 5:50 AM AST 6:31 PM AST
Civil Twilight 5:28 AM AST 6:53 PM AST
Nautical Twilight 5:01 AM AST 7:19 PM AST
Astronomical Twilight 4:35 AM AST 7:46 PM AST
Moon 10:05 AM AST (4/23) 11:20 PM AST (4/23)
Length of Visible Light 13h 25m
Length of Day
12h 40m
Waxing Crescent, 27% of the Moon is Illuminated
Apr 23
Waxing Crescent
Apr 25
First Quarter
May 3
Full
May 11
Last Quarter
May 18
New

Hourly Weather History & Observations

Time (AST) Temp. Heat Index Dew Point Humidity Pressure Visibility Wind Dir Wind Speed Gust Speed Precip Events Conditions
12:00 AM 78.8 °F - 69.8 °F 74% 30.01 in 6.2 mi ESE 6.9 mph - N/A   Partly Cloudy
1:00 AM 78.8 °F - 69.8 °F 74% 29.98 in 6.2 mi East 8.1 mph - N/A   Partly Cloudy
2:00 AM 78 °F - 70 °F 71% 29.98 in 22 mi ESE 9.2 mph - -  
2:00 AM 78.8 °F - 69.8 °F 74% 29.98 in 6.2 mi ESE 9.2 mph - N/A   Partly Cloudy
3:00 AM 78.8 °F - 69.8 °F 74% 29.95 in 6.2 mi ESE 9.2 mph - N/A   Partly Cloudy
4:00 AM 78.8 °F - 69.8 °F 74% 29.95 in 6.2 mi ESE 9.2 mph - N/A   Partly Cloudy
5:00 AM 78 °F - 70 °F 71% 29.97 in 22 mi ESE 9.2 mph - -   Scattered Clouds
5:00 AM 78.8 °F - 69.8 °F 74% 29.95 in 6.2 mi ESE 9.2 mph - N/A   Partly Cloudy
6:00 AM 78.8 °F - 71.6 °F 78% 29.98 in 6.2 mi ESE 9.2 mph - N/A   Partly Cloudy
7:00 AM 80.6 °F 83.9 °F 69.8 °F 70% 29.98 in 6.2 mi ESE 11.5 mph - N/A   Scattered Clouds
8:00 AM 81 °F - 72 °F 67% 29.99 in 31 mi SE 13.8 mph - -   Partly Cloudy
8:00 AM 80.6 °F 84.6 °F 71.6 °F 74% 29.98 in 6.2 mi SE 13.8 mph - N/A   Scattered Clouds
9:00 AM 82.4 °F 87.2 °F 71.6 °F 70% 30.01 in 6.2 mi SE 13.8 mph - N/A   Scattered Clouds
10:00 AM 82.4 °F 87.2 °F 71.6 °F 70% 30.01 in 6.2 mi SE 13.8 mph - N/A   Partly Cloudy
11:00 AM 83 °F - 72 °F 62% 30.03 in 34 mi SE 12.7 mph - -   Partly Cloudy
11:00 AM 82.4 °F 87.2 °F 71.6 °F 70% 30.01 in 6.2 mi SE 11.5 mph - N/A   Scattered Clouds
12:00 PM 82.4 °F 87.2 °F 71.6 °F 70% 30.01 in 6.2 mi SE 11.5 mph - N/A   Scattered Clouds
1:00 PM 82.4 °F 88.2 °F 73.4 °F 74% 30.01 in 6.2 mi SE 9.2 mph - N/A   Scattered Clouds
2:00 PM 83 °F - 72 °F 63% 29.99 in 25 mi SSE 11.5 mph - -   Scattered Clouds
2:00 PM 84.2 °F 89.6 °F 71.6 °F 66% 29.98 in 6.2 mi SE 11.5 mph - N/A   Partly Cloudy
3:00 PM 82.4 °F 87.2 °F 71.6 °F 70% 29.98 in 6.2 mi SE 9.2 mph - N/A   Partly Cloudy
4:00 PM 82.4 °F 88.2 °F 73.4 °F 74% 29.98 in 6.2 mi SE 9.2 mph - N/A   Scattered Clouds
5:00 PM 82 °F - 72 °F 65% 29.96 in 22 mi SE 9.2 mph - -   Scattered Clouds
5:00 PM 82.4 °F 88.2 °F 73.4 °F 74% 29.95 in 6.2 mi SE 10.4 mph - N/A   Partly Cloudy
6:00 PM 80.6 °F 84.6 °F 71.6 °F 74% 29.95 in 6.2 mi East 9.2 mph - N/A   Partly Cloudy
7:00 PM 80.6 °F 85.4 °F 73.4 °F 79% 29.98 in 6.2 mi East 8.1 mph - N/A   Partly Cloudy
8:00 PM 79 °F - 73 °F 76% 30.00 in 22 mi ESE 8.1 mph - -   Scattered Clouds
8:00 PM 78.8 °F - 73.4 °F 83% 29.98 in 6.2 mi ESE 9.2 mph - N/A   Partly Cloudy
9:00 PM 78.8 °F - 71.6 °F 78% 29.98 in 6.2 mi ESE 9.2 mph - N/A   Partly Cloudy
10:00 PM 78.8 °F - 73.4 °F 83% 30.01 in 6.2 mi ESE 6.9 mph - N/A   Partly Cloudy
11:00 PM 79 °F - 73 °F 76% 30.01 in 22 mi SE 8.1 mph - -   Scattered Clouds
11:00 PM 78.8 °F - 73.4 °F 83% 30.01 in 6.2 mi SE 8.1 mph - N/A   Partly Cloudy